Vertical_Velocity
2 2 -6 -8 2 -5 0 5 8 -3 3 2 -2 -0 -0 -2 2 1 0 -2 0 2 1 1 -1 -1 1 0 -0 -1 -1 -2
-1 13 -1 -8 -11 -0 -1 -5 6 1 -15 -0 -1 -7 1 -3 0 6 3 -1 -3 -0 5 -1 -2 -1 -2 -2 -2 -1 -1 -0
11 0 6 -8 -4 -7 -2 0 -3 1 -2 -2 0 9 1 4 2 5 6 -1 -2 -3 -1 5 -0 0 -2 -1 -1 0 -2 1
-0 8 6 -1 -16 -7 -6 -3 3 -1 5 5 -5 -2 2 -5 -2 -2 2 5 1 -3 2 -2 3 0 2 -3 0 1 -2 -3
4 1 16 -1 -14 -11 6 -1 -3 5 2 2 -5 -1 -2 7 10 8 -1 2 2 -2 -4 1 1 1 2 2 -2 -1 3 3
-5 -4 -0 2 8 -8 -3 3 -0 1 -5 1 4 -5 -0 3 -0 -0 1 2 0 -2 0 -2 -3 -2 1 -1 -2 0 -1 2
-4 -2 4 4 6 7 -3 -1 -3 1 -6 -1 -3 1 3 -4 -3 -0 -1 8 4 -0 -2 -0 0 -4 -1 4 2 1 -1 -0
-3 -1 -11 -2 10 2 -3 0 -9 2 -3 -5 -5 0 5 -4 -3 -1 1 2 -1 1 4 -1 -4 3 -1 4 3 0 1 -0
-3 -0 7 8 -11 10 3 -5 -6 -3 11 1 -2 5 -2 2 0 -2 -3 -3 -1 9 9 6 3 -2 -1 0 -1 0 0 1
-4 8 7 4 11 -5 8 0 -1 -1 -4 6 4 2 4 -4 -1 -1 -6 4 -2 -3 8 8 -0 5 3 3 2 1 2 2
-0 5 -7 -4 -3 9 -1 12 -6 -11 -4 0 -2 3 5 8 2 -7 -6 -3 1 1 2 0 10 2 4 -0 3 2 3 7
-8 1 5 5 13 8 -1 7 -6 -1 -9 8 7 1 7 5 -5 -0 -0 5 -2 5 0 5 1 6 4 3 1 7 4 9
0 -4 15 -9 -0 6 1 12 3 -6 6 8 2 -0 8 5 -0 -3 10 -4 -1 7 -1 -1 1 -1 6 6 3 8 9 1
-3 3 -0 11 6 -0 1 -0 4 5 6 9 15 -0 1 4 4 2 1 -2 1 -3 1 -2 5 8 -6 7 1 7 3 12
-3 -4 -4 -7 7 -2 -2 -3 2 -1 8 8 9 -0 1 4 4 0 -2 1 -2 -7 -1 3 2 7 5 5 39 -16 4 9
-5 11 -2 1 -9 1 4 1 9 -1 3 3 -2 7 6 1 -2 2 -7 -4 2 6 5 10 11 -6 -16 -2 21 -3 -1 2
22 7 11 23 12 15 13 9 -2 -6 -2 5 4 1 3 -6 6 8 2 6 6 -4 5 6 8 -5 -10 11 10 18 -24 7
10 2 10 3 18 13 11 7 5 3 2 5 5 5 2 2 4 -2 1 8 6 -12 8 7 14 2 -10 -10 -6 -9 17 -1
5 1 10 7 9 12 7 11 7 4 -1 -0 2 6 3 -3 3 4 2 -4 8 -6 8 8 6 7 7 6 5 -8 5 -12
Height
3105 3108 3113 3117 3120 3123 3127 3130 3131 3134 3136 3139 3141 3144 3147 3151 3154 3158 3161 3164 3166 3169 3172 3174 3175 3177 3179 3180 3181 3181 3181 3181
3100 3104 3105 3110 3113 3116 3119 3123 3127 3128 3132 3133 3136 3140 3144 3146 3150 3153 3156 3159 3162 3165 3167 3170 3171 3173 3174 3175 3176 3177 3178 3178
3093 3097 3099 3103 3105 3109 3113 3116 3121 3124 3126 3130 3133 3136 3140 3142 3145 3148 3151 3154 3157 3161 3163 3165 3167 3169 3170 3171 3173 3174 3174 3175
3085 3089 3091 3095 3100 3100 3104 3109 3114 3118 3122 3124 3127 3130 3133 3135 3138 3142 3146 3150 3152 3155 3158 3160 3162 3164 3166 3167 3168 3170 3171 3172
3078 3081 3083 3085 3091 3095 3096 3101 3106 3111 3115 3117 3120 3124 3127 3131 3135 3138 3141 3144 3147 3150 3153 3155 3157 3159 3161 3163 3165 3166 3166 3167
3068 3073 3075 3077 3083 3087 3088 3093 3098 3104 3107 3111 3114 3117 3122 3124 3127 3130 3134 3137 3140 3144 3147 3149 3152 3154 3157 3158 3159 3161 3162 3163
3059 3064 3069 3069 3075 3080 3082 3084 3089 3095 3099 3103 3107 3111 3114 3117 3120 3124 3127 3130 3133 3136 3139 3143 3146 3148 3151 3153 3154 3156 3157 3158
3049 3054 3059 3061 3063 3069 3073 3077 3081 3084 3088 3093 3098 3103 3106 3110 3114 3117 3121 3124 3126 3129 3132 3136 3138 3141 3144 3147 3148 3150 3150 3152
3038 3044 3049 3054 3056 3058 3062 3068 3073 3076 3079 3083 3089 3096 3097 3101 3106 3109 3113 3116 3120 3123 3126 3128 3132 3135 3137 3140 3142 3143 3144 3146
3030 3035 3039 3044 3046 3048 3053 3058 3064 3067 3072 3076 3080 3086 3088 3092 3098 3102 3105 3108 3111 3114 3117 3120 3123 3127 3130 3132 3134 3135 3137 3139
3018 3023 3028 3032 3033 3037 3041 3046 3052 3057 3062 3066 3071 3075 3079 3083 3088 3093 3097 3100 3102 3104 3107 3111 3114 3118 3121 3124 3126 3127 3129 3130
3007 3012 3018 3021 3023 3027 3029 3034 3041 3046 3049 3055 3060 3065 3070 3073 3078 3083 3087 3090 3093 3095 3097 3101 3105 3108 3112 3115 3118 3119 3122 3124
2997 3002 3007 3010 3013 3015 3017 3024 3030 3034 3037 3043 3050 3057 3058 3062 3067 3073 3077 3080 3083 3086 3089 3091 3095 3099 3102 3106 3109 3112 3114 3116
2985 2990 2994 2999 3002 3005 3008 3013 3016 3020 3024 3030 3039 3044 3048 3052 3057 3062 3066 3069 3073 3076 3079 3081 3084 3088 3094 3098 3101 3103 3106 3109
2969 2976 2980 2984 2989 2995 2999 3003 3007 3009 3014 3017 3026 3033 3038 3042 3047 3050 3053 3057 3060 3065 3068 3072 3075 3078 3082 3087 3085 3092 3096 3100
2952 2962 2967 2971 2977 2983 2987 2993 2998 3002 3005 3006 3013 3023 3028 3031 3034 3037 3042 3044 3049 3052 3057 3062 3066 3069 3073 3074 3075 3081 3086 3091
2940 2945 2957 2965 2969 2974 2979 2983 2988 2994 2998 3000 3004 3010 3016 3021 3025 3027 3030 3035 3038 3042 3047 3052 3055 3058 3062 3068 3071 3075 3070 3082
2931 2938 2948 2953 2960 2964 2968 2973 2978 2984 2989 2993 2996 3000 3004 3010 3015 3018 3021 3024 3028 3033 3037 3043 3047 3050 3055 3059 3062 3065 3069 3073
2931 2931 2937 2945 2952 2956 2960 2966 2970 2975 2981 2985 2987 2991 2996 3001 3006 3008 3010 3014 3019 3023 3028 3033 3037 3042 3048 3052 3056 3057 3058 3064